Location: Gull Harbor
(47.1000°N, 122.9000°W)
Time: 22:32:08
(UTC-07:00)

STARLINK-2672 - Pass Details

Date: 01 August 2021
Orbit: 546 x 548 km, 53.1° (Epoch: 23 September)

Event Time Altitude Azimuth Distance (km) Brightness Sun altitude
Rises 21:54:36 0° 287° (WNW) 2,720 8.5 -10.8°
Reaches altitude 10° 21:57:54 10° 259° (W) 1,820 6.8 -11.2°
Maximum altitude 21:59:47 13° 232° (SW) 1,636 6.1 -11.4°
Drops below altitude 10° 22:01:41 10° 204° (SSW) 1,813 6.1 -11.7°
Enters shadow 22:03:30 - 186° (S) 2,248 6.4 -11.9°
